Weather Roundup
Issued by NWS Springfield, MO

Home | Current Version | Previous Version | Text Only | Print | Product List | Glossary On
Versions: 1 2 3 4 5 6 7 8 9 10 11 12 13 14 15 16 17 18 19 20 21 22 23 24 25 26 27 28 29 30 31 32 33 34 35 36 37 38 39 40 41 42 43 44 45 46 47 48 49 50
000
NZUS99 KSGF 281957
HRRSGF

HOURLY WEATHER
NATIONAL WEATHER SERVICE SPRINGFIELD MO
300 PM CDT WED JUN 28 2017

......SGF CWA......

CITY           SKY/WX    TMP DP  RH WIND       PRES   REMARKS
SPRINGFIELD    SUNNY     85  68  56 S21G29    29.91F
JOPLIN         MOSUNNY   88  72  58 S18G28    29.87F HX  94
WEST PLAINS    MOSUNNY   84  62  47 S12G23    30.00F
ROLLA          SUNNY     87  61  41 S23G31    29.91F
BRANSON        PTSUNNY   84  66  54 S12       29.96F

......SURROUNDING SGF CWA......

CITY           SKY/WX    TMP DP  RH WIND       PRES   REMARKS
CHANUTE        PTSUNNY   90  69  50 S21G30    29.83F HX  94
PARSONS        MOSUNNY   90  70  51 S17G26    29.85F HX  95
COFFEYVILLE    PTSUNNY   89  70  53 S18G31    29.83F HX  94
EMPORIA        SUNNY     89  70  53 S26G35    29.78F HX  94
HARRISON AR    MOSUNNY   85  65  51 S15       29.97F

......KANSAS AND MISSOURI......

CITY           SKY/WX    TMP DP  RH WIND       PRES   REMARKS
KANSAS CTY INT PTSUNNY   87  71  58 S22G32    29.77F HX  93
SEDALIA        MOSUNNY   87  72  60 S22G28    29.86F HX  93
ST JOSEPH      MOSUNNY   88  73  61 S22G31    29.73F HX  95
ST LOUIS       CLOUDY    88  62  41 S15G28    29.92F
WICHITA        MOSUNNY   93  65  39 S29G38    29.75F HX  95
TOPEKA         MOSUNNY   91  71  51 S15G26    29.73F HX  97
OLATHE         PTSUNNY   85  71  63 S16G29    29.80F HX  90

......TENNESSEE......

CITY           SKY/WX    TMP DP  RH WIND       PRES   REMARKS
MEMPHIS        NOT AVBL
NASHVILLE      MOSUNNY   86  55  34 S3        30.07F

......ARKANSAS.......

CITY           SKY/WX    TMP DP  RH WIND       PRES   REMARKS
FAYETTEVILLE   MOSUNNY   84  68  58 S16G23    29.94F
FT SMITH       MOSUNNY   90  69  50 S13G21    29.91F HX  94
LITTLE ROCK    PTSUNNY   87  68  52 S10       29.97F HX  90

......OKLAHOMA.......

CITY           SKY/WX    TMP DP  RH WIND       PRES   REMARKS
TULSA          MOSUNNY   90  70  51 S23G30    29.81F HX  95
MCALESTER      MOSUNNY   89  68  49 S7G22     29.91F HX  93
OKLAHOMA CITY  MOSUNNY   91  65  41 S24G30    29.83F HX  93

......IOWA............

CITY           SKY/WX    TMP DP  RH WIND       PRES   REMARKS
DES MOINES     NOT AVBL
QUAD CITIES    CLOUDY    79  68  69 S18G25    29.78F

......ILLINOIS........

CITY           SKY/WX    TMP DP  RH WIND       PRES   REMARKS
QUINCY         MOSUNNY   85  66  53 S21G31    29.84F
CHICAGO        CLOUDY    74  62  66 S14       29.85F




USA.gov is the U.S. government's official web portal to all federal, state and local government web resources and services.